Kenosha, WI

12:35 PM CDT on October 18, 2017 (GMT -0500)
Kenosha Regional

Weather History for KENW - March, 2014

Change the Weather History Date:

Monday, March 3, 2014

  Actual Average Record
Temperature  
Mean Temperature 7 °F -  
Max Temperature 18 °F 38 °F 73 °F (1974)
Min Temperature -4 °F 24 °F -4 °F (2014)
Degree Days  
Heating Degree Days 58    
Moisture  
Dew Point -5 °F    
Average Humidity 60    
Maximum Humidity 70    
Minimum Humidity 47    
Precipitation  
Precipitation 0.00 in - - ()
Sea Level Pressure  
Sea Level Pressure 30.48 in    
Wind  
Wind Speed 6 mph (WNW)    
Max Wind Speed 9 mph    
Max Gust Speed -    
Visibility 8 miles    
Events Snow    
Averages and records for this station are not official NWS values.
T = Trace of Precipitation, MM = Missing Value Source: NWS Daily Summary

Daily Weather History Graph

Daily Weather History Graph

Search for Another Location

Airport or City:

Trip Planner

Search our weather history database for the weather conditions in past years. The results will help you decide how hot, cold, wet, or windy it might be!

Date:

Astronomy

Mar. 03, 2014 Rise Set
Actual Time 6:24 AM CST 5:43 PM CST
Civil Twilight 5:55 AM CST 6:12 PM CST
Nautical Twilight 5:23 AM CST 6:44 PM CST
Astronomical Twilight 4:50 AM CST 7:17 PM CST
Moon 7:28 AM CST (3/3) 8:51 PM CST (3/3)
Length of Visible Light 12h 16m
Length of Day
11h 19m
Waxing Crescent, 8% of the Moon is Illuminated
Mar 3
Waxing Crescent
Mar 8
First Quarter
Mar 16
Full
Mar 23
Last Quarter
Mar 30
New

Hourly Weather History & Observations

Time (CST) Temp. Windchill Dew Point Humidity Pressure Visibility Wind Dir Wind Speed Gust Speed Precip Events Conditions
12:53 AM -0.9 °F -12.7 °F -17.0 °F 47% 30.48 in 10.0 mi NNW 5.8 mph - N/A   Clear
1:53 AM -2.0 °F -16.6 °F -17.0 °F 49% 30.48 in 10.0 mi NW 8.1 mph - N/A   Clear
2:53 AM -2.9 °F -17.7 °F -17.0 °F 51% 30.47 in 10.0 mi NW 8.1 mph - N/A   Clear
3:53 AM -4.0 °F -17.8 °F -17.0 °F 54% 30.48 in 10.0 mi NW 6.9 mph - N/A   Clear
4:53 AM -4.0 °F -20.2 °F -17.0 °F 54% 30.49 in 10.0 mi NNW 9.2 mph - N/A   Clear
5:53 AM -4.0 °F -20.2 °F -16.1 °F 56% 30.51 in 10.0 mi NW 9.2 mph - N/A   Clear
6:53 AM -4.0 °F -19.0 °F -15.0 °F 59% 30.51 in 10.0 mi NW 8.1 mph - N/A   Partly Cloudy
7:53 AM -2.0 °F -12.2 °F -13.0 °F 60% 30.53 in 10.0 mi NW 4.6 mph - N/A   Scattered Clouds
8:00 AM -0.9 °F -8.9 °F -11.9 °F 60% 30.46 in 10.0 mi NW 3.5 mph - N/A   Overcast
8:25 AM -0.0 °F -7.9 °F -11.0 °F 60% 30.47 in 1.8 mi WNW 3.5 mph - 0.00 in Snow Light Snow
8:48 AM 1.4 °F -8.3 °F -7.6 °F 66% 30.48 in 2.0 mi WNW 4.6 mph - 0.00 in Snow Light Snow
8:53 AM 1.0 °F -8.7 °F -8.0 °F 66% 30.55 in 2.0 mi WNW 4.6 mph - 0.00 in Snow Light Snow
9:53 AM 5.0 °F -4.1 °F -4.0 °F 66% 30.55 in 2.0 mi WNW 4.6 mph - 0.00 in Snow Light Snow
10:53 AM 9.0 °F 2.4 °F 1.0 °F 70% 30.54 in 2.0 mi WNW 3.5 mph - 0.00 in   Haze
11:00 AM 10.9 °F - 1.9 °F 67% 30.48 in 7.0 mi Calm Calm - N/A   Overcast
11:39 AM 12.0 °F - 3.0 °F 67% 30.49 in 10.0 mi Calm Calm - N/A   Scattered Clouds
11:53 AM 12.9 °F - 3.9 °F 67% 30.54 in 10.0 mi Calm Calm - N/A   Partly Cloudy
12:53 PM 15.1 °F 6.4 °F 3.0 °F 59% 30.52 in 10.0 mi WSW 5.8 mph - N/A   Partly Cloudy
1:53 PM 16.0 °F 7.4 °F 3.0 °F 57% 30.50 in 10.0 mi West 5.8 mph - N/A   Partly Cloudy
2:53 PM 18.0 °F 12.7 °F 3.9 °F 54% 30.49 in 10.0 mi West 3.5 mph - N/A   Clear
3:53 PM 17.1 °F 5.8 °F 1.0 °F 50% 30.48 in 10.0 mi West 9.2 mph - N/A   Clear
4:53 PM 17.1 °F 8.7 °F -0.0 °F 47% 30.48 in 10.0 mi WNW 5.8 mph - N/A   Clear
5:53 PM 12.0 °F 1.5 °F 1.0 °F 61% 30.47 in 10.0 mi West 6.9 mph - N/A   Clear
6:53 PM 10.9 °F 1.4 °F 1.9 °F 67% 30.45 in 10.0 mi WSW 5.8 mph - N/A   Mostly Cloudy
7:53 PM 12.0 °F 4.1 °F 1.9 °F 64% 30.44 in 10.0 mi SSW 4.6 mph - N/A   Clear
8:53 PM 10.9 °F 2.9 °F 1.0 °F 64% 30.43 in 10.0 mi SW 4.6 mph - N/A   Mostly Cloudy
9:53 PM 8.1 °F 1.4 °F -0.0 °F 70% 30.43 in 10.0 mi WSW 3.5 mph - N/A   Clear
10:53 PM 10.0 °F 3.6 °F 1.0 °F 67% 30.40 in 10.0 mi SW 3.5 mph - N/A   Clear
11:53 PM 9.0 °F 0.6 °F 1.0 °F 70% 30.40 in 10.0 mi WSW 4.6 mph - N/A   Partly Cloudy